[[{"header":{"parameterUnit":"m.s-1","parameterCategory":1,"la1":30.2991,"la2":30.254,"lo1":-89.0895,"lo2":-89.0444,"dy":0.0017,"dx":0.0017,"nx":28,"ny":28,"refTime":"2024-07-18T03:00:00:Z","depth":0,"parameterNumber":2,"parameterNumberName":"U-component_of_WINDS"},"data":[0,0,0,0,0,0,0,0,0,0,0,0,0,0,0,0,0,0,0,0,0,0,0,0,0,0,0,0,0,0,0,0,0,0,0,0,0,0,0,0,0,0,0,0,0,0,0,0,0,0,0,0,0,0,0,0,0,0,2.2476,2.248,0,2.2845,2.2849,2.2853,2.3028,2.3028,2.3028,2.3027,2.3414,2.3424,2.3435,0,0,0,0,0,0,0,0,0,0,0,0,0,2.193,2.1939,2.2475,2.248,2.2485,2.2844,2.2849,2.2854,2.3028,2.3028,2.3028,2.3027,2.3411,2.3423,2.3435,0,0,0,0,0,0,0,0,0,0,0,0,0,2.222,2.1942,2.2475,2.2615,2.2631,2.2843,2.2849,2.2855,2.3028,2.3028,2.3027,2.3027,2.3406,2.3422,2.3437,2.3541,0,0,2.3485,2.3492,0,0,0,0,0,0,0,0,2.2203,2.224,2.2589,2.2605,2.2624,2.289,2.2799,2.3085,2.3028,2.2878,2.3027,2.3027,2.324,2.327,2.334,2.3559,2.3575,2.3487,2.3496,2.3503,2.3507,0,0,0,0,0,0,0,2.2183,2.2225,2.2622,2.2594,2.2615,2.2662,2.2702,2.2854,2.3057,2.2891,2.2904,2.2945,2.325,2.3324,2.335,2.3581,2.3486,2.35,2.351,2.3516,2.3903,2.3904,0,0,0,0,0,0,2.2139,2.2207,2.261,2.2633,2.2408,2.2672,2.2717,2.2805,2.3055,2.3093,2.2945,2.2952,2.3298,2.3332,2.3365,2.3503,2.3503,2.3518,2.3527,2.3903,2.3904,2.3905,0,0,0,0,0,0,2.2126,2.2173,2.2595,2.2424,2.2481,2.2681,2.2778,2.2812,2.2887,2.3096,2.3134,2.2983,2.3299,2.3342,2.3495,2.3518,2.3525,2.3539,2.3902,2.3903,2.3904,2.3778,0,0,0,0,0,0,2.211,2.2167,2.2207,2.2423,2.2489,2.2717,2.278,2.282,2.2913,2.2925,2.3142,2.3178,2.3302,2.347,2.351,2.354,2.3551,2.39,2.3902,2.3904,2.3781,2.3775,2.377,0,0,0,0,0,2.209,2.2159,2.2208,2.2256,2.2543,2.2718,2.2756,2.2895,2.2914,2.2957,2.3091,2.3171,2.3508,2.3485,2.3531,2.3566,2.39,2.3902,2.3904,2.3784,2.3776,2.377,0,0,0,0,0,0,2.1945,2.219,2.2247,2.2388,2.253,2.2747,2.2805,2.2882,2.3025,2.3031,2.3199,2.3247,2.3384,2.3491,2.346,2.3679,2.3712,2.3723,2.3605,2.3599,2.3594,2.3566,2.3564,0,0,0,0,0,2.1928,2.2047,2.2256,2.236,2.2428,2.2603,2.2685,2.2779,2.2935,2.2997,2.3143,2.3292,2.3433,2.3522,2.3662,2.3797,2.3847,2.3844,2.3837,2.3832,2.384,2.392,2.3921,2.3911,2.3911,2.3911,0,0,2.1897,2.2046,2.2111,2.2335,2.2456,2.2578,2.2654,2.278,2.2873,2.3018,2.317,2.3281,2.346,2.3603,2.3674,2.3696,2.3854,2.3834,2.3828,2.384,2.3922,2.3922,2.3923,2.3912,2.3912,2.3912,0,0,2.1903,2.2026,2.2126,2.2245,2.2426,2.2542,2.2565,2.2771,2.2849,2.3004,2.3115,2.3229,2.3466,2.3589,2.3682,2.3731,2.3811,2.3772,2.3743,2.3818,2.3819,2.3821,2.3839,2.3843,2.3779,2.3779,2.3779,0,2.1842,2.2027,2.2169,2.2288,2.2384,2.2516,2.262,2.273,2.2948,2.3012,2.3033,2.3333,2.3463,2.3637,2.3648,2.3719,2.3753,2.3749,2.3807,2.381,2.3814,2.3833,2.3839,2.3773,2.3774,2.3775,2.3775,0,2.1944,2.2071,2.213,2.2334,2.2437,2.2547,2.2708,2.2795,2.2879,2.2993,2.3149,2.3308,2.3483,2.3531,2.3616,2.3717,2.3725,2.3774,2.3811,2.3806,2.3827,2.3836,2.3765,2.3767,2.3769,2.377,0,0,2.1872,2.215,2.2169,2.2263,2.2472,2.2574,2.2691,2.2858,2.293,2.3076,2.318,2.3376,2.3422,2.3527,2.3627,2.3693,2.3722,2.3734,2.3741,2.3727,2.3844,2.3807,2.3813,2.3774,2.3776,2.3778,2.3829,0,2.1907,2.212,2.2249,2.2411,2.253,2.2657,2.2759,2.2899,2.3008,2.3127,2.3249,2.3386,2.3435,2.35,2.357,2.3703,2.3748,2.3701,2.3875,2.388,2.3828,2.3824,2.3786,2.3827,2.3838,2.384,2.3841,0,2.1978,2.2116,2.2288,2.2482,2.2537,2.2626,2.279,2.2901,2.3063,2.3138,2.3253,2.3353,2.3484,2.3507,2.369,2.3655,2.3734,2.381,2.3815,2.3839,2.3861,2.3849,2.3843,2.3849,2.3855,2.3854,2.3853,0,2.1908,2.2138,2.2271,2.2347,2.2577,2.2636,2.2735,2.2896,2.2988,2.3132,2.3194,2.3351,2.3438,2.3559,2.3699,2.3703,2.3868,2.3903,2.3936,2.3932,2.3967,2.3964,2.3975,2.4014,2.4014,2.4014,2.4014,0,2.1935,2.2036,2.2243,2.2324,2.2441,2.259,2.2702,2.2812,2.2953,2.306,2.318,2.3278,2.3456,2.3577,2.3687,2.3822,2.3861,2.3926,2.3955,2.3917,2.3908,2.3973,2.3974,2.4016,2.4015,2.4015,2.4015,0,2.1878,2.2021,2.2174,2.2376,2.243,2.2507,2.2682,2.2768,2.2881,2.3015,2.3055,2.3235,2.3383,2.3534,2.3735,2.3809,2.3942,2.398,2.3886,2.3902,2.3927,2.3923,2.3982,2.3998,2.4023,2.4022,2.4022,0,2.1887,2.1967,2.2177,2.2255,2.235,2.2475,2.2569,2.2718,2.2811,2.3,2.3062,2.3218,2.3351,2.3582,2.3733,2.3887,2.3931,2.3941,2.3955,2.3914,2.3933,2.3927,2.3936,2.3936,2.3935,2.3934,2.3933,0,2.1887,2.1953,2.2082,2.2234,2.2341,2.247,2.2603,2.2661,2.2837,2.2935,2.3086,2.3189,2.3392,2.3546,2.3717,2.3823,2.3908,2.3927,2.3943,2.3906,2.3848,2.3881,2.3872,2.3926,2.3926,2.3927,2.3927,2.3928,2.1866,2.1942,2.2101,2.224,2.2355,2.2475,2.2565,2.2688,2.2816,2.2991,2.3072,2.3223,2.3383,2.3622,2.3724,2.3847,2.387,2.3893,2.3899,2.3903,2.3894,2.3826,2.3878,2.3879,2.3879,2.388,2.388,0,2.1873,2.1981,2.2107,2.2287,2.2396,2.2463,2.2613,2.2701,2.2832,2.2972,2.3099,2.3272,2.3422,2.3582,2.3741,2.3809,2.3852,2.3846,2.3843,2.3866,2.3864,2.3834,2.3808,2.3808,2.3808,2.3808,2.3808,2.3808,2.189,2.2023,2.2107,2.2298,2.2407,2.2553,2.2633,2.2746,2.2859,2.3045,2.3169,2.3271,2.342,2.3591,2.3731,2.3775,2.3829,2.3811,2.3866,2.3861,2.3866,2.3872,2.3845,2.3821,2.3821,2.3859,2.386,2.386]},{"header":{"parameterUnit":"m.s-1","parameterCategory":1,"la1":30.2991,"la2":30.254,"lo1":-89.0895,"lo2":-89.0444,"dy":0.0017,"dx":0.0017,"nx":28,"ny":28,"refTime":"2024-07-18T03:00:00:Z","depth":0,"parameterNumber":3,"parameterNumberName":"V-component_of_WINDS"},"data":[0,0,0,0,0,0,0,0,0,0,0,0,0,0,0,0,0,0,0,0,0,0,0,0,0,0,0,0,0,0,0,0,0,0,0,0,0,0,0,0,0,0,0,0,0,0,0,0,0,0,0,0,0,0,0,0,0,0,-2.1831,-2.183,0,-2.173,-2.1729,-2.1728,-2.1683,-2.1683,-2.1683,-2.1683,-2.1563,-2.156,-2.1556,0,0,0,0,0,0,0,0,0,0,0,0,0,-2.1969,-2.1967,-2.1831,-2.183,-2.1829,-2.1731,-2.1729,-2.1728,-2.1683,-2.1683,-2.1683,-2.1683,-2.1564,-2.156,-2.1556,0,0,0,0,0,0,0,0,0,0,0,0,0,-2.1892,-2.1966,-2.1832,-2.1795,-2.1791,-2.1731,-2.1729,-2.1727,-2.1683,-2.1683,-2.1683,-2.1683,-2.1565,-2.156,-2.1555,-2.1519,0,0,-2.154,-2.1538,0,0,0,0,0,0,0,0,-2.1897,-2.1887,-2.1802,-2.1797,-2.1793,-2.172,-2.1733,-2.1657,-2.1683,-2.1723,-2.1683,-2.1683,-2.1614,-2.1605,-2.1585,-2.1514,-2.1509,-2.154,-2.1537,-2.1534,-2.1533,0,0,0,0,0,0,0,-2.1902,-2.1891,-2.1791,-2.18,-2.1795,-2.1778,-2.1768,-2.1719,-2.1667,-2.172,-2.1716,-2.1706,-2.1611,-2.159,-2.1582,-2.1507,-2.154,-2.1535,-2.1532,-2.153,-2.1397,-2.1397,0,0,0,0,0,0,-2.1916,-2.1896,-2.1794,-2.1788,-2.1847,-2.1776,-2.1764,-2.1742,-2.1668,-2.1658,-2.1706,-2.1704,-2.1598,-2.1587,-2.1577,-2.1528,-2.1534,-2.153,-2.1527,-2.1398,-2.1397,-2.1396,0,0,0,0,0,0,-2.1919,-2.1907,-2.1798,-2.1841,-2.1826,-2.1773,-2.1749,-2.174,-2.1719,-2.1658,-2.1647,-2.1694,-2.1598,-2.1584,-2.1535,-2.1524,-2.1527,-2.1523,-2.1398,-2.1397,-2.1397,-2.1432,0,0,0,0,0,0,-2.1923,-2.1909,-2.1898,-2.1841,-2.1824,-2.1763,-2.1749,-2.1738,-2.1713,-2.1709,-2.1644,-2.1633,-2.1597,-2.1542,-2.153,-2.1517,-2.1519,-2.1399,-2.1398,-2.1397,-2.1431,-2.1433,-2.1433,0,0,0,0,0,-2.1928,-2.1909,-2.1898,-2.1886,-2.1811,-2.1762,-2.1752,-2.1715,-2.1712,-2.1699,-2.1659,-2.1635,-2.1527,-2.1538,-2.1523,-2.1508,-2.1399,-2.1398,-2.1397,-2.1431,-2.1432,-2.1433,0,0,0,0,0,0,-2.1961,-2.1901,-2.1888,-2.1851,-2.1813,-2.1755,-2.1737,-2.1718,-2.1675,-2.1674,-2.1624,-2.161,-2.1564,-2.1531,-2.1544,-2.1468,-2.1461,-2.1456,-2.1492,-2.1492,-2.1493,-2.1501,-2.1515,0,0,0,0,0,-2.1965,-2.1936,-2.1883,-2.1855,-2.1837,-2.1791,-2.1768,-2.1744,-2.1699,-2.1681,-2.1638,-2.1591,-2.1546,-2.1517,-2.1472,-2.1426,-2.1409,-2.1408,-2.1409,-2.1411,-2.1407,-2.1377,-2.1375,-2.1393,-2.1393,-2.1393,0,0,-2.1971,-2.1935,-2.1918,-2.1861,-2.1828,-2.1794,-2.1777,-2.1742,-2.1714,-2.1674,-2.1626,-2.1592,-2.1536,-2.1488,-2.1464,-2.1458,-2.1398,-2.1409,-2.1411,-2.1406,-2.1375,-2.1374,-2.1372,-2.1392,-2.1392,-2.1392,0,0,-2.1965,-2.1936,-2.1909,-2.1878,-2.183,-2.1799,-2.1793,-2.1738,-2.1715,-2.1668,-2.1636,-2.1599,-2.1524,-2.1485,-2.1455,-2.1433,-2.1408,-2.1419,-2.1423,-2.1394,-2.1393,-2.1391,-2.138,-2.1377,-2.1415,-2.1415,-2.1415,0,-2.1977,-2.193,-2.1896,-2.1864,-2.1837,-2.1805,-2.1774,-2.1743,-2.1681,-2.1661,-2.1657,-2.1561,-2.1521,-2.1462,-2.1457,-2.1434,-2.1421,-2.1426,-2.1397,-2.1395,-2.1392,-2.1382,-2.1378,-2.1417,-2.1417,-2.1417,-2.1416,0,-2.1945,-2.1913,-2.1896,-2.1843,-2.1814,-2.1783,-2.174,-2.1714,-2.1691,-2.1659,-2.1607,-2.1558,-2.1503,-2.1486,-2.1462,-2.1422,-2.142,-2.1407,-2.1399,-2.1393,-2.1382,-2.1378,-2.1419,-2.1419,-2.1418,-2.1418,0,0,-2.1957,-2.1888,-2.1882,-2.1856,-2.1801,-2.1772,-2.1736,-2.1687,-2.1664,-2.1621,-2.1587,-2.1524,-2.1512,-2.1478,-2.1447,-2.1423,-2.1404,-2.1411,-2.1409,-2.141,-2.1354,-2.1364,-2.136,-2.1388,-2.1388,-2.1387,-2.1358,0,-2.1942,-2.1885,-2.1853,-2.1805,-2.1772,-2.1739,-2.1707,-2.1667,-2.1635,-2.1597,-2.1559,-2.1515,-2.1503,-2.1482,-2.1456,-2.1413,-2.1392,-2.1414,-2.135,-2.1349,-2.1366,-2.1355,-2.1365,-2.1341,-2.1354,-2.1353,-2.1352,0,-2.1918,-2.1882,-2.1833,-2.178,-2.1765,-2.1738,-2.1689,-2.1655,-2.1606,-2.1584,-2.1547,-2.1517,-2.1472,-2.1468,-2.1402,-2.1418,-2.1389,-2.1363,-2.1361,-2.1353,-2.135,-2.1344,-2.1332,-2.1328,-2.1346,-2.1346,-2.1347,0,-2.193,-2.1868,-2.183,-2.1809,-2.1748,-2.1729,-2.1701,-2.1653,-2.1624,-2.1579,-2.1559,-2.1507,-2.1478,-2.1435,-2.139,-2.1392,-2.1327,-2.132,-2.1303,-2.1304,-2.129,-2.1291,-2.1272,-2.1274,-2.1274,-2.1275,-2.1275,0,-2.1916,-2.1887,-2.1835,-2.1812,-2.1776,-2.1737,-2.1701,-2.1669,-2.1626,-2.1591,-2.1557,-2.1524,-2.1468,-2.1426,-2.1389,-2.1338,-2.1325,-2.1302,-2.1292,-2.1304,-2.1307,-2.1284,-2.1284,-2.1273,-2.1274,-2.1274,-2.1274,0,-2.1924,-2.1889,-2.1845,-2.1791,-2.1776,-2.1752,-2.1702,-2.1675,-2.1642,-2.1598,-2.1585,-2.153,-2.1479,-2.143,-2.1359,-2.1334,-2.1282,-2.127,-2.1301,-2.1296,-2.1281,-2.1282,-2.1245,-2.1236,-2.1246,-2.1246,-2.1246,0,-2.1918,-2.1895,-2.1839,-2.1817,-2.1791,-2.1754,-2.1727,-2.1685,-2.1656,-2.1598,-2.1576,-2.1524,-2.148,-2.1397,-2.1347,-2.1291,-2.1276,-2.1267,-2.1268,-2.128,-2.1274,-2.1275,-2.1271,-2.1268,-2.1268,-2.1268,-2.1268,0,-2.1909,-2.1893,-2.1857,-2.1815,-2.1784,-2.1747,-2.1708,-2.1689,-2.1639,-2.1607,-2.1558,-2.1524,-2.1454,-2.14,-2.1339,-2.1302,-2.1274,-2.1269,-2.1261,-2.1273,-2.1291,-2.1279,-2.1302,-2.1269,-2.1269,-2.1269,-2.1269,-2.1269,-2.1908,-2.1886,-2.1844,-2.1804,-2.1772,-2.1736,-2.1708,-2.1672,-2.1632,-2.1576,-2.1552,-2.1501,-2.1446,-2.1363,-2.1327,-2.1281,-2.1275,-2.1265,-2.1262,-2.126,-2.1261,-2.13,-2.1269,-2.1269,-2.1269,-2.1269,-2.1269,0,-2.1897,-2.1868,-2.1833,-2.1782,-2.1749,-2.1733,-2.1688,-2.166,-2.1617,-2.1573,-2.1531,-2.1471,-2.1418,-2.1364,-2.1306,-2.1279,-2.1265,-2.1265,-2.1266,-2.1257,-2.1271,-2.1283,-2.1278,-2.1278,-2.1278,-2.1278,-2.1278,-2.1278,-2.1887,-2.1848,-2.1826,-2.1769,-2.1738,-2.1693,-2.1668,-2.1633,-2.1597,-2.1534,-2.1493,-2.146,-2.1409,-2.1347,-2.1295,-2.128,-2.1258,-2.1262,-2.1243,-2.1257,-2.1256,-2.1256,-2.1267,-2.1258,-2.1258,-2.1232,-2.1232,-2.1232]}]]